Location: Nebula Knoll Observatory
(43.6666°N, 71.0000°W)
Time: 00:21:52
(UTC-04:00)

Daily predictions for brighter satellites

Satellite Brightness Start Highest point End
(mag) Time Altitude Azimuth Time Altitude Azimuth Time Altitude Azimuth
Cosmos 2154 Rocket 4.3 00:03:34 10° N 00:09:35 58° ENE 00:09:35 58° ENE
Cosmos 1943 Rocket 3.3 00:05:28 10° N 00:10:38 35° NE 00:10:59 34° ENE
Cosmos 2369 Rocket 2.6 00:05:17 10° NNW 00:10:16 58° NNE 00:10:16 58° NNE
Terra 4.3 00:11:24 13° W 00:11:24 13° W 00:13:04 10° WNW
Cosmos 1603 4.0 00:12:40 66° N 00:12:40 66° N 00:17:37 10° NNE
Meteor 1-13 Rocket 4.5 00:19:58 71° N 00:19:58 71° N 00:25:15 10° N
Meteor 1-19 Rocket 4.5 00:23:41 70° N 00:23:41 70° N 00:28:51 10° N
ALOS 2 4.2 00:29:39 31° NNW 00:29:39 31° NNW 00:32:05 10° NNW
ATLAS 2AS CENTAUR R/B 3.5 00:26:52 34° WSW 00:30:18 57° NW 00:38:20 10° NNE
SL-16 R/B 4.2 00:35:09 17° W 00:37:36 23° NW 00:42:03 10° N
NOSS 3-2 (A) 4.1 00:32:57 10° NW 00:40:24 72° NE 00:42:03 57° ESE
Cosmos 1238 Rocket 4.1 00:47:18 62° NNW 00:47:18 62° NNW 00:52:35 10° N
CZ-2C R/B 3.2 00:43:52 10° N 00:48:44 54° NW 00:48:44 54° NW
ATLAS CENTAUR R/B 4.4 00:49:43 10° NW 00:50:55 11° NW 00:52:07 10° NNW
ATLAS 3B R/B 3.5 00:45:42 10° NW 00:50:28 36° W 00:50:28 36° W
Meteor 2-19 Rocket 4.5 00:47:31 10° N 00:53:03 75° N 00:53:03 75° N
Nadezhda 1 Rocket 4.5 00:55:11 50° WNW 00:55:11 50° WNW 01:01:11 10° N
Cosmos 2218 Rocket 4.5 00:49:18 10° N 00:55:18 49° ENE 00:55:24 49° E
Cosmos 2181 Rocket 4.1 00:57:03 75° ENE 00:57:03 75° ENE 01:03:14 10° N
SL-8 Rocket 4.1 00:55:13 10° N 01:01:11 65° ENE 01:01:11 65° ENE
Lacrosse 5 rocket 4.3 01:07:17 12° ENE 01:07:17 12° ENE 01:07:42 10° ENE
Cosmos 1295 Rocket 4.5 01:02:51 10° N 01:08:25 75° NNW 01:08:25 75° NNW
Cosmos 1943 4.0 01:28:38 43° WNW 01:28:38 43° WNW 01:33:59 10° NNE
USA 215 3.9 01:26:04 10° ENE 01:31:31 41° ESE 01:31:31 41° ESE
RESURS DK-1 4.1 01:42:55 30° NE 01:42:55 30° NE 01:45:08 10° NNE
Cosmos 1959 Rocket 4.5 01:37:54 10° NNW 01:43:59 72° W 01:43:59 72° W
CENTAUR R/B 3.5 01:39:05 10° NNW 01:46:47 59° NE 01:55:03 10° SE
Meteor 2-14 Rocket 4.3 01:43:24 10° N 01:49:34 80° E 01:49:49 78° ESE
PSLV R/B 4.4 01:48:29 10° NNE 01:51:57 51° NNE 01:51:57 51° NNE
NOSS 3-2 (C) 4.0 01:46:20 10° NW 01:53:45 60° WSW 01:53:54 60° SW
Cosmos 2369 Rocket 4.2 01:50:24 10° NW 01:52:03 16° WNW 01:52:03 16° WNW
Cosmos 1943 Rocket 3.4 01:49:13 10° NW 01:52:30 29° WNW 01:52:30 29° WNW
Meteor 2-16 Rocket 4.3 01:49:17 10° N 01:55:25 78° E 01:55:51 74° SE
Cosmos 1626 Rocket 4.5 01:58:47 47° NNE 01:58:47 47° NNE 02:01:55 10° N
SL-08 R/B 4.4 01:58:46 37° E 01:59:22 39° ENE 02:03:50 10° N
Meteor 2-21 Rocket 4.3 01:54:41 10° N 02:00:50 79° W 02:00:54 79° WSW
Cosmos 2056 Rocket 4.2 01:55:55 10° N 02:01:06 49° ENE 02:02:04 44° E
COSMOS 2455 3.0 01:55:47 10° NW 02:01:00 62° WNW 02:01:00 62° WNW
Cosmos 1680 Rocket 3.6 02:05:34 68° NNW 02:05:34 68° NNW 02:10:25 10° NNE
Cosmos 1953 4.2 02:02:00 10° NNE 02:05:23 25° ENE 02:05:26 25° ENE
USA 267 4.4 01:59:33 10° E 02:05:37 42° NNE 02:11:41 10° NW
Meteor 1-21 4.3 02:09:33 61° ESE 02:09:54 62° E 02:15:26 10° NNE
Cosmos 1271 Rocket 4.4 02:08:56 10° N 02:11:41 31° NE 02:11:41 31° NE
NOSS 2-2 (D) 4.4 02:20:14 42° E 02:20:14 42° E 02:23:46 10° NE
Cosmos 2082 Rocket 4.3 02:17:36 13° ESE 02:19:46 16° E 02:23:07 10° ENE
Cosmos 1602 Rocket 4.4 02:21:43 46° NNW 02:21:43 46° NNW 02:25:06 10° N
NOSS 3-4 (A) 4.1 02:19:28 40° W 02:21:02 48° NW 02:27:23 10° NNE
NOSS 3-4 (C) 4.1 02:19:35 41° W 02:21:08 49° NW 02:27:29 10° NNE
SL-27 R/B 4.1 02:23:35 34° NNE 02:23:35 34° NNE 02:25:46 10° NNE
Cosmos 1805 4.3 02:18:24 10° N 02:21:25 44° NE 02:21:25 44° NE
Cosmos 192 4.4 02:22:53 74° NNW 02:22:53 74° NNW 02:27:29 10° NNE
Cosmos 1821 Rocket 4.1 02:18:08 10° N 02:24:15 69° E 02:26:02 46° SE
Cosmos 1758 4.2 02:22:00 10° N 02:25:39 47° ENE 02:25:39 47° ENE
IRS-P3 4.1 02:20:48 10° NNE 02:26:09 72° ESE 02:26:35 68° SE
Cosmos 1656 Rocket 4.5 02:21:14 10° NW 02:24:53 36° WNW 02:24:53 36° WNW
Cosmos 2239 Rocket 4.4 02:25:28 10° N 02:31:39 80° E 02:33:18 51° SSE
ARIANE 5 R/B 4.0 02:28:08 10° NNE 02:32:45 31° E 02:34:30 25° SE
Cosmos 1934 Rocket 4.2 02:30:43 10° N 02:37:02 68° E 02:39:48 35° SSE
Cosmos 1371 Rocket 4.1 02:32:10 10° NNW 02:37:09 62° W 02:37:09 62° W
NOSS 2-2 (C) 3.7 02:38:08 68° ENE 02:38:08 68° ENE 02:42:21 10° NE
Cosmos 1842 4.0 02:40:02 48° N 02:40:02 48° N 02:42:56 10° N
COSMOS 2406 3.4 02:39:49 53° W 02:40:36 57° WNW 02:46:17 10° NNE
Lacrosse 5 rocket 1.7 02:42:58 66° NW 02:43:03 66° NW 02:47:43 10° NE
AQUA 3.7 02:38:50 10° NNE 02:43:37 77° ESE 02:43:58 72° SSE
Cosmos 1535 Rocket 4.4 02:37:25 10° N 02:43:40 89° W 02:45:26 50° S
Resurs 1-4 Rocket 3.0 02:38:57 10° NNE 02:43:55 41° E 02:45:44 31° SE
Cosmos 921 Rocket 3.1 02:40:10 10° NNW 02:44:23 77° NNW 02:44:23 77° NNW
Cosmos 839 Rocket 4.2 02:39:10 10° NNW 02:45:30 80° ENE 02:52:57 10° SE
ADEOS 4.5 02:41:43 10° NNE 02:46:40 41° E 02:48:29 31° SE
Cosmos 1544 4.5 02:47:50 10° NNW 02:49:58 32° NNW 02:49:58 32° NNW
Cosmos 1707 4.1 02:55:42 29° ESE 02:56:30 32° E 02:59:58 10° NNE
SL-16 R/B 2.5 02:57:09 26° SSE 03:00:50 83° ENE 03:07:02 10° NNW
Cosmos 1758 Rocket 3.3 03:04:17 77° SW 03:04:34 83° W 03:08:54 10° N
COSMOS 2487 3.0 03:07:47 52° ESE 03:07:47 52° ESE 03:11:15 10° NNE
NPP 3.9 03:03:32 10° N 03:08:48 54° WNW 03:09:59 45° WSW
CZ-2D R/B 2.2 03:06:20 10° NNE 03:11:37 71° ESE 03:13:40 37° S
Cosmos 1818 3.8 03:12:24 44° WSW 03:13:54 61° NW 03:19:19 10° NNE
COBE Rocket 4.2 03:09:54 10° NNE 03:14:52 63° E 03:16:54 34° SSE
Cosmos 1470 2.7 03:10:59 10° N 03:14:55 84° E 03:15:28 64° SSE
USA 215 3.5 03:08:57 10° NE 03:15:24 64° NNW 03:18:51 29° WSW
RESURS DK-1 4.5 03:18:49 15° WNW 03:19:30 16° NW 03:22:04 10° N
Cosmos 1697 Rocket 3.6 03:16:24 10° NNW 03:21:52 49° ENE 03:27:18 10° SE
ADEOS Rocket 3.1 03:16:25 10° NNE 03:22:41 88° ESE 03:26:34 28° SSW
Cosmos 1733 3.0 03:22:27 10° NNW 03:26:15 71° W 03:26:34 66° SW
ERS-1 4.4 03:21:46 10° N 03:26:45 72° WNW 03:28:28 41° SW
Cosmos 1953 Rocket 3.9 03:26:21 44° W 03:26:55 46° WNW 03:31:15 10° N
DNEPR-1 R/B 3.7 03:24:05 10° NW 03:27:49 46° WSW 03:27:49 46° WSW
UNKNOWN OBJECT B 3.2 03:31:24 10° NNE 03:35:24 61° E 03:37:20 29° S
CENTAUR R/B 3.5 03:30:08 10° NW 03:37:25 40° WSW 03:45:03 10° S
Cosmos 1656 3.5 03:32:18 10° NNW 03:37:46 89° ENE 03:43:12 10° SSE
Cosmos 2278 3.7 03:33:13 10° NNW 03:38:52 63° WSW 03:44:28 10° S
ADEOS II 4.2 03:36:31 10° NE 03:40:35 22° E 03:44:37 10° SE
Cosmos 1953 3.7 03:38:29 10° NW 03:41:09 23° WNW 03:41:09 23° WNW
GEOS 3 Rocket 3.8 03:37:10 10° NE 03:42:27 67° SE 03:45:26 26° SSW
MOZ.5/SAFIR/RUBIN 5/SL-8 3.7 03:43:07 11° SSE 03:47:40 89° ENE 03:52:24 10° NNW
Spot 4 Rocket 4.4 03:43:05 10° N 03:48:02 47° WNW 03:50:16 29° SW
USA 267 3.2 03:41:47 10° SE 03:48:19 78° SW 03:54:54 10° NW
Cosmos 2369 3.8 03:42:44 10° NNW 03:48:20 54° WSW 03:53:52 10° S
Cosmos 389 Rocket 3.3 03:48:06 10° NNW 03:51:14 32° W 03:51:14 32° W
Cosmos 2098 Rocket 3.2 03:49:48 10° NNW 03:51:46 28° WNW 03:51:46 28° WNW
Cosmos 1833 Rocket 2.7 03:49:56 24° SSW 03:53:25 85° ESE 03:59:04 10° NNE
MOS 1 Rocket 3.4 03:52:34 10° NNE 03:56:58 67° E 04:00:52 14° S
Cosmos 1727 Rocket 4.1 03:53:14 23° SSW 03:57:03 59° WNW 04:03:09 10° N
Cosmos 1980 Rocket 2.9 03:52:19 10° NNW 03:57:57 58° ENE 04:03:31 10° SE
Cosmos 2061 Rocket 4.1 03:55:02 10° N 04:01:17 77° E 04:07:28 10° SSE
Cosmos 2082 Rocket 2.2 03:59:28 23° SSW 04:03:08 76° WNW 04:08:51 10° NNE
USA 161 1.4 04:08:21 29° SSW 04:09:32 56° W 04:12:15 10° NNW
IRS-1D 4.4 04:06:11 10° N 04:10:54 34° WNW 04:13:52 20° WSW
ARIANE 5 R/B 3.3 04:07:08 10° N 04:11:52 36° WNW 04:14:51 20° WSW
Cosmos 1378 3.7 04:12:17 25° SW 04:13:56 40° WNW 04:17:30 10° N
Meteor 2-17 Rocket 4.4 04:08:07 10° N 04:14:12 88° E 04:20:16 10° S
Cosmos 1459 Rocket 3.9 04:08:57 10° N 04:15:08 78° W 04:21:25 10° S
Cosmos 1452 Rocket 4.5 04:13:11 10° NW 04:17:29 26° W 04:20:11 17° SW
Cosmos-2242 4.4 04:15:17 10° NW 04:18:40 22° W 04:20:02 19° WSW
Landsat 4 3.6 04:15:12 10° SSE 04:18:55 81° WSW 04:22:42 10° NNW
CZ-3A R/B 3.6 04:22:10 10° NNE 04:22:34 10° NNE 04:23:02 10° NNE
SL-16 R/B 4.0 04:17:52 10° N 04:23:03 35° NE 04:28:12 10° ESE
Lacrosse 5 rocket 3.6 04:19:31 10° WNW 04:23:06 21° NNW 04:26:39 10° NNE
Resurs 1-4 Rocket 3.2 04:19:09 10° N 04:23:34 28° WNW 04:26:49 15° WSW
Okean O Rocket 2.4 04:20:02 10° NNE 04:24:23 52° E 04:28:39 10° S
Cosmos 1802 Rocket 4.0 04:21:27 10° NNW 04:27:52 74° W 04:34:13 10° S
Abrixas 2.1 04:29:06 10° WNW 04:31:54 82° SSW 04:34:41 10° ESE
Meteor 2-5 Rocket 4.4 04:27:40 15° SW 04:32:01 39° WNW 04:37:30 10° N
Cosmos 1707 4.4 04:30:56 15° W 04:32:31 18° WNW 04:35:15 10° NNW
Cosmos 1725 Rocket 4.3 04:27:40 10° N 04:33:58 75° E 04:40:16 10° SSE
In-Cosmos 22 4.0 04:29:11 10° S 04:34:28 84° W 04:39:48 10° N
Cosmos 1340 Rocket 4.1 04:32:26 10° SSE 04:36:12 41° E 04:39:56 10° NNE
Cosmos 1048 Rocket 4.5 04:32:16 15° SW 04:36:17 43° WNW 04:41:11 10° N
PSLV R/B 4.2 04:33:33 10° NNE 04:37:51 57° E 04:42:05 10° S
Cosmos 2221 2.4 04:34:28 10° NNW 04:38:44 75° W 04:42:59 10° S
CZ-2D R/B 4.4 04:36:14 10° N 04:39:45 29° WNW 04:42:43 13° SW
Cosmos 1842 Rocket 4.5 04:36:21 10° NNW 04:40:11 29° W 04:44:01 10° SSW
Cosmos 1908 3.6 04:39:13 10° N 04:43:05 70° E 04:46:57 10° SSE
SL-08 R/B 4.4 04:37:40 10° N 04:43:47 78° W 04:49:51 10° S
Meteor 2-1 Rocket 4.4 04:38:33 10° NNW 04:44:04 53° W 04:49:41 10° S
SL-16 R/B 4.0 04:42:14 12° WSW 04:45:10 16° W 04:48:47 10° NW
Cosmos 1110 Rocket 4.0 04:41:20 10° NNW 04:46:39 73° WSW 04:51:54 10° SSE
GPS 2-05 Rocket1 4.4 04:47:05 12° SW 04:49:22 20° S 04:52:03 10° SE
CZ-2D R/B 3.8 04:47:46 10° NNW 04:51:06 17° WNW 04:54:24 10° W
Cosmos 1184 Rocket 4.0 04:48:11 10° S 04:51:23 45° E 04:54:37 10° NNE
EXPRESS MD2 4.3 04:48:08 10° WNW 04:51:49 22° SW 04:54:14 10° S
Cosmos 1302 Rocket 4.4 04:51:25 10° NNW 04:56:39 71° ENE 05:01:52 10° SSE
SL-24 R/B 4.3 04:53:32 10° NNE 04:58:05 78° ESE 05:02:17 10° S
CZ-2C R/B 3.7 04:54:36 10° SSE 04:59:03 89° SW 05:03:36 10° NNW
Timation 2 Rocket 4.5 04:54:06 10° SW 05:00:29 49° WNW 05:06:39 10° NNE
CZ-4B R/B 3.3 05:00:48 10° N 05:05:06 56° WNW 05:09:31 10° SSW
Cosmos 1697 Rocket 3.7 05:01:01 10° NW 05:05:29 25° WSW 05:09:57 10° SSW
Cosmos 2360 4.4 05:01:45 10° NW 05:07:17 50° WSW 05:12:46 10° S
